Miscellaneous Local Product
Issued by NWS Hastings, NE

Home | Current Version | Previous Version | Text Only | Print | Product List | Glossary On
Versions: 1 2 3 4 5 6 7 8 9 10 11 12 13 14 15 16 17 18 19 20 21 22 23 24 25 26 27 28 29 30 31 32 33 34 35 36 37 38 39 40 41 42 43 44 45 46 47 48 49 50
000
AXUS43 KGID 011802
MISGRI

GID CWA HOURLY WEATHER ROUNDUP
NATIONAL WEATHER SERVICE HASTINGS NE
1200 PM CST SUN FEB 01 2015

NOTE: "FAIR" INDICATES FEW OR NO CLOUDS BELOW 12,000 FEET WITH NO
SIGNIFICANT WEATHER AND/OR OBSTRUCTIONS TO VISIBILITY.

...SOUTH CENTRAL NEBRASKA...

CITY           SKY/WX    TMP DP  RH WIND       PRES   REMARKS
GRAND ISLAND   BLWGSNOW   8   3  80 NW28G39   30.20R VSB 1/2 WCI -14
HASTINGS       SNOW       9   4  80 N29G39    30.17S VSB 1/2 WCI -13
KEARNEY        CLOUDY     9   3  78 N24G39    30.20R VSB 3/4 WCI -12
ORD            LGT SNOW   5  -2  72 NW30G38   30.24R VSB 3/4 WCI -19
YORK           LGT SNOW   9   5  85 N20G29    30.15R VSB 3/4 WCI -11
AURORA         SNOW       8   4  85 N36G41    30.17R VSB 1/4 WCI -16
LEXINGTON      LGT SNOW  10   5  78 N28       30.24R WCI -11
HOLDREGE       LGT SNOW  10   5  79 NW25G36   30.20R WCI -10
HEBRON         LGT SNOW  11   6  79 N18G26    30.14R VSB 3/4 WCI  -7

...NEBRASKA PANHANDLE...

CITY           SKY/WX    TMP DP  RH WIND       PRES   REMARKS
CHADRON        CLOUDY     6   0  76 NE7       30.37S WCI  -6
ALLIANCE       CLOUDY     8   1  73 N16       30.28R WCI -10
SCOTTSBLUFF    CLOUDY    19   9  65 N21       30.28R WCI   3
SIDNEY         CLOUDY    14   7  73 N18       30.24R WCI  -3

...WESTERN AND NORTH CENTRAL NEBRASKA...

CITY           SKY/WX    TMP DP  RH WIND       PRES   REMARKS
VALENTINE      LGT SNOW   2  -5  72 N17G23    30.34S WCI -18
AINSWORTH      CLOUDY     1  -4  77 NW24G31   30.31R HAZE    WCI -22
ONEILL         CLOUDY     4  -1  80 N25       30.28R HAZE    WCI -18
BROKEN BOW     LGT SNOW   7   1  76 N25G33    30.23S VSB 1   WCI -15
IMPERIAL       PTSUNNY   13   4  67 N32G38    30.27R WCI  -9
NORTH PLATTE   CLOUDY    10   1  67 N23G35    30.26S WCI -10
MCCOOK         PTSUNNY   14   5  67 NW28G33   30.27R WCI  -6

...EASTERN NEBRASKA...

CITY           SKY/WX    TMP DP  RH WIND       PRES   REMARKS
NORFOLK        SNOW       5   0  79 N26G40    30.20R VSB 1/2 WCI -18
SO SIOUX CITY  HAZE      13   8  81 N25G33    30.16S VSB 3/4 WCI  -7
TEKAMAH        HAZE      16  11  80 N33G45    30.12R VSB 1/4 WCI  -5
ALBION         LGT SNOW   5  -1  74 N24G38    30.20R VSB 3/4 WCI -17
OMAHA EPPLEY   SNOW      18  14  84 N29G38    30.04R VSB 1/2 WCI  -1
OFFUTT AFB     LGT SNOW  19  14  79 NW13G24   30.02R WCI   7
MILLARD        LGT SNOW  18  13  81 N9        30.06R VSB 1   WCI   7
LINCOLN        LGT SNOW  14   9  80 N29G36    30.11R VSB 3/4 WCI  -7
NEBRASKA CITY  LGT SNOW  20  18  89 N24       29.97R VSB 3/4 WCI   3
BEATRICE       LGT SNOW  15  11  85 N21G26    30.07R WCI  -3
FALLS CITY     LGT SNOW  23  18  81 NW22G31   29.94R VSB 1   WCI   8

...NORTHERN KANSAS...

CITY           SKY/WX    TMP DP  RH WIND       PRES   REMARKS
GOODLAND       FLURRIES  18  12  77 N24G33    30.22R WCI   0
HILL CITY      PTSUNNY   17   9  70 NW31G40   30.23R WCI  -3
NORTON         CLOUDY    12   3  67 NW28G37   30.22S WCI  -9
PHILLIPSBURG   MOSUNNY   18  10  73 NW24G36   30.22R HAZE    WCI   0
SMITH CENTER   LGT SNOW  12   7  79 NW23G38   30.20R WCI  -7
BELOIT         CLOUDY    16  10  79 NW25G32   30.18R WCI  -3
HAYS           CLOUDY    19   5  53 NW21G30   30.20R WCI   3
RUSSELL        FLURRIES  19  13  77 NW30G40   30.17R WCI   0
CONCORDIA      LGT SNOW  13   8  81 NW23G39   30.13R WCI  -6
SALINA         LGT SNOW  19  13  77 NW33G41   30.12R WCI  -1
TOPEKA         LGT SNOW  25  20  81 NW22G38   29.96R WCI  10



USA.gov is the U.S. government's official web portal to all federal, state and local government web resources and services.